TimeCDT,TemperatureF,Dew PointF,Humidity,Sea Level PressureIn,VisibilityMPH,Wind Direction,Wind SpeedMPH,Gust SpeedMPH,PrecipitationIn,Events,Conditions,WindDirDegrees,DateUTC
12:53 AM,71.1,63.0,75,29.84,10.0,WNW,8.1,-,N/A,,Clear,300,2013-06-28 05:53:00
1:53 AM,70.0,63.0,78,29.83,10.0,WNW,6.9,-,N/A,,Clear,290,2013-06-28 06:53:00
2:53 AM,66.9,63.0,87,29.83,10.0,West,6.9,-,N/A,,Clear,280,2013-06-28 07:53:00
3:53 AM,66.9,63.0,87,29.82,10.0,WNW,9.2,-,N/A,,Clear,290,2013-06-28 08:53:00
4:53 AM,68.0,62.1,81,29.80,10.0,WNW,8.1,-,N/A,,Clear,300,2013-06-28 09:53:00
5:53 AM,66.0,62.1,87,29.82,10.0,West,6.9,-,N/A,,Clear,280,2013-06-28 10:53:00
6:53 AM,69.1,63.0,81,29.83,10.0,WNW,9.2,-,N/A,,Scattered Clouds,300,2013-06-28 11:53:00
7:53 AM,72.0,61.0,68,29.85,10.0,NW,12.7,-,N/A,,Clear,320,2013-06-28 12:53:00
8:53 AM,75.0,60.1,60,29.85,10.0,NNW,13.8,-,N/A,,Clear,330,2013-06-28 13:53:00
9:53 AM,78.1,59.0,52,29.84,10.0,NW,10.4,23.0,N/A,,Clear,310,2013-06-28 14:53:00
10:53 AM,80.1,59.0,48,29.83,10.0,NW,17.3,25.3,N/A,,Clear,310,2013-06-28 15:53:00
11:53 AM,81.0,55.0,41,29.82,10.0,NW,21.9,29.9,N/A,,Clear,310,2013-06-28 16:53:00
12:53 PM,82.9,54.0,37,29.81,10.0,NW,24.2,38.0,N/A,,Clear,320,2013-06-28 17:53:00
1:53 PM,82.9,53.1,36,29.79,10.0,NW,29.9,39.1,N/A,,Scattered Clouds,320,2013-06-28 18:53:00
2:53 PM,84.9,54.0,34,29.77,10.0,NW,19.6,34.5,N/A,,Partly Cloudy,320,2013-06-28 19:53:00
3:53 PM,84.9,53.1,33,29.76,10.0,NW,21.9,31.1,N/A,,Partly Cloudy,310,2013-06-28 20:53:00
4:53 PM,84.0,53.1,34,29.75,10.0,NW,18.4,29.9,N/A,,Scattered Clouds,310,2013-06-28 21:53:00
5:53 PM,82.9,54.0,37,29.74,10.0,NW,26.5,34.5,N/A,,Scattered Clouds,310,2013-06-28 22:53:00
6:53 PM,82.0,54.0,38,29.73,10.0,NNW,18.4,27.6,N/A,,Clear,330,2013-06-28 23:53:00
7:53 PM,79.0,55.9,45,29.74,10.0,NNW,16.1,25.3,N/A,,Clear,330,2013-06-29 00:53:00
8:53 PM,73.9,57.0,55,29.75,10.0,NNW,13.8,-,N/A,,Partly Cloudy,340,2013-06-29 01:53:00
9:53 PM,71.1,57.0,61,29.75,10.0,NNW,10.4,-,N/A,,Clear,330,2013-06-29 02:53:00
10:53 PM,69.1,57.9,68,29.75,10.0,NW,10.4,-,N/A,,Clear,310,2013-06-29 03:53:00
11:53 PM,70.0,57.9,65,29.74,10.0,NW,10.4,-,N/A,,Clear,310,2013-06-29 04:53:00